sat.trackr.live / text

‹ back to catalog

ONEWEB-0590

NORAD 54656 · 2022-166Q

PAYLOAD ACTIVE UNKNOWN

§ Identity

Operator
Country
UK
Launch date
2022-12-08
Launch site
AFETR
Launch vehicle
Mass (kg)
RCS (m²)

Purposes: comms

External: N2YO · Heavens-Above · Gunter

§ Orbital elements

Epoch: 2026-09-19T07:30:04.974048Z

Period
108.94 min
Inclination
87.9289°
Eccentricity
0.0001818
Mean motion
13.21824508 rev/d
Perigee alt
1,176.4 km
Apogee alt
1,179.1 km
Semi-major
7,555.9 km
B*
1.5408e-4
RAAN
225.2409°
Arg perigee
91.8031°
Mean anomaly
268.3311°
Rev number
18,396

§ Raw data

ONEWEB-05901 54656U 22166Q   26262.31255757  .00000077  00000+0  15408-3 0  99902 54656  87.9289 225.2409 0001818  91.8031 268.3311 13.21824508183960

JSON: /api/v1/satellites/54656 · /tle

For live sub-satellite position, see the globe view (requires WebGL).

§ Visibility from observer

Set your observer location to see the next 7 days of passes ≥ 10°. The values pass through the URL so the page stays shareable.

No JS? Fill the form by hand. The geolocation button needs JavaScript.